Location: Newark
(34.9500°N, 139.9667°E)
Time: 04:39:11
(UTC+00:00)

Tiros 1 despin weight - Visible Passes

Search period start: 10 December 2019 00:00
Search period end: 20 December 2019 00:00
Orbit: 594 x 642 km, 48.2° (Epoch: 08 December)

Date Brightness Start Highest point End Pass type
(mag) Time Alt. Az. Time Alt. Az. Time Alt. Az.
10 Dec ? 19:26:56 39° NNE 19:26:56 39° NNE 19:29:56 10° NE visible
10 Dec ? 21:04:26 10° WNW 21:07:42 19° NNW 21:10:56 10° NNE visible
11 Dec ? 19:43:15 30° N 19:43:15 30° N 19:46:19 10° NE visible
12 Dec ? 19:59:26 23° NNW 19:59:26 23° NNW 20:02:40 10° NNE visible
13 Dec ? 20:15:31 17° NNW 20:16:03 17° NNW 20:19:05 10° NNE visible
14 Dec ? 20:31:31 13° NNW 20:33:09 15° N 20:35:46 10° NNE visible
15 Dec ? 19:10:23 12° NNE 19:10:23 12° NNE 19:10:47 10° NNE visible
15 Dec ? 20:47:39 10° NNW 20:50:17 15° N 20:52:52 10° NE visible
16 Dec ? 19:26:18 13° NNE 19:26:18 13° NNE 19:27:17 10° NNE visible
16 Dec ? 21:04:21 10° NNW 21:07:21 17° NNE 21:10:21 10° NE visible
17 Dec ? 19:42:11 14° N 19:42:11 14° N 19:44:08 10° NE visible
18 Dec ? 19:58:03 15° N 19:58:39 16° N 20:01:25 10° NE visible
19 Dec ? 20:13:55 16° NNW 20:15:44 19° NNE 20:18:58 10° ENE visible
